| time (UTC) | temp F | wind direction | speed knots | gust knots | rain 1hr in | rain 24hr in | rain mn in | humidity % | barometer mb |
| 20260901161043 | 86 | 44 | 1.7 | 5.2 | 0.00 | 0.00 | 0.00 | 50 | 1012.5 |
| 20260901160541 | 86 | 86 | 0.0 | 5.2 | 0.00 | 0.00 | 0.00 | 50 | 1012.4 |
| 20260901160050 | 86 | 45 | 1.7 | 5.2 | 0.00 | 0.00 | 0.00 | 50 | 1012.4 |
| 20260901155540 | 86 | 163 | 0.9 | 2.6 | 0.00 | 0.00 | 0.00 | 51 | 1012.4 |
| 20260901155037 | 86 | 64 | 0.0 | 2.6 | 0.00 | 0.00 | 0.00 | 52 | 1012.4 |
| 20260901154537 | 85 | 86 | 1.7 | 2.6 | 0.00 | 0.00 | 0.00 | 52 | 1012.4 |
| 20260901154036 | 85 | 77 | 0.0 | 3.5 | 0.00 | 0.00 | 0.00 | 52 | 1012.4 |
| 20260901153536 | 85 | 160 | 1.7 | 4.3 | 0.00 | 0.00 | 0.00 | 52 | 1012.4 |
| 20260901153033 | 85 | 137 | 0.9 | 4.3 | 0.00 | 0.00 | 0.00 | 51 | 1012.3 |
| 20260901152533 | 85 | 89 | 0.9 | 4.3 | 0.00 | 0.00 | 0.00 | 52 | 1012.4 |
| 20260901152035 | 84 | 121 | 0.9 | 4.3 | 0.00 | 0.00 | 0.00 | 53 | 1012.4 |
| 20260901151530 | 84 | 85 | 0.9 | 5.2 | 0.00 | 0.00 | 0.00 | 54 | 1012.2 |
| 20260901151028 | 83 | 105 | 0.9 | 5.2 | 0.00 | 0.00 | 0.00 | 54 | 1012.2 |
| 20260901150526 | 83 | 74 | 1.7 | 4.3 | 0.00 | 0.00 | 0.00 | 55 | 1012.2 |
| 20260901150037 | 83 | 53 | 2.6 | 6.1 | 0.00 | 0.00 | 0.00 | 55 | 1012.2 |
| 20260901145523 | 82 | 69 | 2.6 | 6.1 | 0.00 | 0.00 | 0.00 | 55 | 1012.2 |
| 20260901145023 | 82 | 40 | 1.7 | 3.5 | 0.00 | 0.00 | 0.00 | 57 | 1012.2 |
| 20260901144521 | 82 | 42 | 1.7 | 3.5 | 0.00 | 0.00 | 0.00 | 58 | 1012.0 |
| 20260901144020 | 81 | 42 | 1.7 | 3.5 | 0.00 | 0.00 | 0.00 | 59 | 1012.0 |
| 20260901143518 | 81 | 36 | 1.7 | 4.3 | 0.00 | 0.00 | 0.00 | 60 | 1012.0 |
| 20260901143017 | 81 | 36 | 0.9 | 5.2 | 0.00 | 0.00 | 0.00 | 61 | 1011.9 |
| 20260901142517 | 80 | 23 | 2.6 | 5.2 | 0.00 | 0.00 | 0.00 | 61 | 1011.9 |
| 20260901142014 | 80 | 360 | 1.7 | 5.2 | 0.00 | 0.00 | 0.00 | 62 | 1011.9 |
| 20260901141513 | 80 | 37 | 2.6 | 5.2 | 0.00 | 0.00 | 0.00 | 62 | 1012.0 |
| 20260901141011 | 79 | 38 | 1.7 | 5.2 | 0.00 | 0.00 | 0.00 | 62 | 1011.9 |
| 20260901140510 | 79 | 34 | 1.7 | 4.3 | 0.00 | 0.00 | 0.00 | 62 | 1011.9 |
| 20260901140011 | 79 | 47 | 1.7 | 4.3 | 0.00 | 0.00 | 0.00 | 62 | 1011.9 |
| 20260901135508 | 79 | 51 | 2.6 | 4.3 | 0.00 | 0.00 | 0.00 | 62 | 1011.8 |
| 20260901135007 | 79 | 46 | 2.6 | 4.3 | 0.00 | 0.00 | 0.00 | 62 | 1011.7 |
| 20260901134505 | 79 | 26 | 1.7 | 4.3 | 0.00 | 0.00 | 0.00 | 62 | 1011.7 |
| 20260901134007 | 79 | 46 | 1.7 | 3.5 | 0.00 | 0.00 | 0.00 | 62 | 1011.6 |
| 20260901133503 | 79 | 44 | 0.9 | 2.6 | 0.00 | 0.00 | 0.00 | 62 | 1011.6 |
| 20260901133007 | 79 | 57 | 0.9 | 2.6 | 0.00 | 0.00 | 0.00 | 63 | 1011.5 |
| 20260901132502 | 79 | 38 | 0.9 | 3.5 | 0.00 | 0.00 | 0.00 | 62 | 1011.5 |
| 20260901132103 | 79 | 49 | 1.7 | 3.5 | 0.00 | 0.00 | 0.00 | 62 | 1011.5 |
| 20260901132001 | 79 | 38 | 1.7 | 3.5 | 0.00 | 0.00 | 0.00 | 62 | 1011.5 |
| 20260901131602 | 79 | 41 | 0.0 | 3.5 | 0.00 | 0.00 | 0.00 | 62 | 1011.4 |
| 20260901131103 | 78 | 50 | 0.0 | 3.5 | 0.00 | 0.00 | 0.00 | 62 | 1011.4 |
| 20260901130559 | 78 | 39 | 1.7 | 3.5 | 0.00 | 0.00 | 0.00 | 62 | 1011.3 |
| 20260901130059 | 78 | 61 | 0.9 | 1.7 | 0.00 | 0.00 | 0.00 | 63 | 1011.4 |
| 20260901125558 | 78 | 14 | 0.0 | 1.7 | 0.00 | 0.00 | 0.00 | 63 | 1011.4 |
| 20260901125058 | 78 | 27 | 0.0 | 2.6 | 0.00 | 0.00 | 0.00 | 63 | 1011.4 |
| 20260901124605 | 78 | 22 | 0.0 | 2.6 | 0.00 | 0.00 | 0.00 | 63 | 1011.3 |
| 20260901124056 | 78 | 348 | 0.9 | 2.6 | 0.00 | 0.00 | 0.00 | 64 | 1011.4 |
| 20260901123626 | 78 | 40 | 0.9 | 2.6 | 0.00 | 0.00 | 0.00 | 63 | 1011.3 |
| 20260901123056 | 78 | 11 | 0.0 | 2.6 | 0.00 | 0.00 | 0.00 | 63 | 1011.2 |
| 20260901122556 | 78 | 44 | 0.9 | 2.6 | 0.00 | 0.00 | 0.00 | 63 | 1011.2 |
| 20260901122054 | 78 | 38 | 0.9 | 3.5 | 0.00 | 0.00 | 0.00 | 62 | 1011.1 |
| 20260901121604 | 78 | 55 | 1.7 | 3.5 | 0.00 | 0.00 | 0.00 | 62 | 1011.1 |
| 20260901121058 | 78 | 60 | 0.9 | 1.7 | 0.00 | 0.00 | 0.00 | 63 | 1011.2 |
| 20260901120559 | 78 | 22 | 0.0 | 1.7 | 0.00 | 0.00 | 0.00 | 62 | 1011.1 |
| 20260901120059 | 78 | 23 | 0.0 | 1.7 | 0.00 | 0.00 | 0.00 | 62 | 1011.1 |
| 20260901115557 | 78 | 30 | 0.0 | 1.7 | 0.00 | 0.00 | 0.00 | 62 | 1011.2 |
| 20260901115053 | 79 | 40 | 0.0 | 1.7 | 0.00 | 0.00 | 0.00 | 62 | 1011.1 |
| 20260901114556 | 79 | 37 | 0.9 | 1.7 | 0.00 | 0.00 | 0.00 | 62 | 1011.1 |
| 20260901114052 | 79 | 30 | 0.0 | 1.7 | 0.00 | 0.00 | 0.00 | 61 | 1011.1 |
| 20260901113552 | 79 | 37 | 0.9 | 0.9 | 0.00 | 0.00 | 0.00 | 61 | 1011.1 |
| 20260901113058 | 79 | 29 | 0.0 | 1.7 | 0.00 | 0.00 | 0.00 | 61 | 1011.0 |
| 20260901112552 | 79 | 26 | 0.0 | 1.7 | 0.00 | 0.00 | 0.00 | 60 | 1010.9 |
| 20260901112050 | 79 | 48 | 0.0 | 2.6 | 0.00 | 0.00 | 0.00 | 59 | 1010.9 |
| 20260901111550 | 79 | 38 | 0.0 | 2.6 | 0.00 | 0.00 | 0.00 | 59 | 1010.9 |
| 20260901111050 | 79 | 39 | 0.9 | 2.6 | 0.00 | 0.00 | 0.00 | 59 | 1010.9 |
| 20260901110551 | 79 | 43 | 0.0 | 1.7 | 0.00 | 0.00 | 0.00 | 58 | 1010.8 |
| 20260901110050 | 80 | 54 | 0.0 | 1.7 | 0.00 | 0.00 | 0.00 | 58 | 1010.8 |
| 20260901105549 | 80 | 24 | 0.9 | 1.7 | 0.00 | 0.00 | 0.00 | 58 | 1010.8 |
| 20260901105048 | 80 | 51 | 0.0 | 2.6 | 0.00 | 0.00 | 0.00 | 57 | 1010.8 |
| 20260901104554 | 80 | 26 | 0.9 | 3.5 | 0.00 | 0.00 | 0.00 | 57 | 1010.8 |
| 20260901104048 | 80 | 42 | 1.7 | 3.5 | 0.00 | 0.00 | 0.00 | 57 | 1010.8 |
| 20260901103547 | 80 | 46 | 0.9 | 3.5 | 0.00 | 0.00 | 0.00 | 57 | 1010.8 |
| 20260901103047 | 80 | 49 | 0.9 | 2.6 | 0.00 | 0.00 | 0.00 | 57 | 1010.9 |
| 20260901102547 | 80 | 57 | 0.9 | 2.6 | 0.00 | 0.00 | 0.00 | 57 | 1010.9 |
| 20260901102046 | 80 | 52 | 1.7 | 2.6 | 0.00 | 0.00 | 0.00 | 57 | 1010.9 |
| 20260901101546 | 80 | 51 | 0.9 | 1.7 | 0.00 | 0.00 | 0.00 | 57 | 1011.0 |
| 20260901101045 | 80 | 39 | 0.0 | 1.7 | 0.00 | 0.00 | 0.00 | 58 | 1011.0 |
| 20260901100545 | 80 | 24 | 0.0 | 1.7 | 0.00 | 0.00 | 0.00 | 57 | 1011.0 |
| 20260901100051 | 80 | 5 | 0.0 | 1.7 | 0.00 | 0.00 | 0.00 | 58 | 1011.0 |
| 20260901095544 | 80 | 19 | 0.0 | 1.7 | 0.00 | 0.00 | 0.00 | 57 | 1011.0 |
| 20260901095045 | 80 | 49 | 0.0 | 1.7 | 0.00 | 0.00 | 0.00 | 56 | 1010.9 |
| 20260901094544 | 80 | 34 | 0.9 | 2.6 | 0.00 | 0.00 | 0.00 | 56 | 1010.9 |
| 20260901094047 | 80 | 48 | 0.9 | 3.5 | 0.00 | 0.00 | 0.00 | 56 | 1010.9 |
| 20260901093544 | 80 | 65 | 0.0 | 3.5 | 0.00 | 0.00 | 0.00 | 56 | 1010.9 |
| 20260901093044 | 80 | 43 | 0.9 | 2.6 | 0.00 | 0.00 | 0.00 | 56 | 1010.9 |
| 20260901092544 | 81 | 30 | 0.9 | 4.3 | 0.00 | 0.00 | 0.00 | 55 | 1010.9 |
| 20260901092043 | 81 | 33 | 0.9 | 4.3 | 0.00 | 0.00 | 0.00 | 55 | 1010.9 |
| 20260901091544 | 81 | 13 | 2.6 | 5.2 | 0.00 | 0.00 | 0.00 | 55 | 1010.9 |
| 20260901091044 | 81 | 25 | 2.6 | 5.2 | 0.00 | 0.00 | 0.00 | 55 | 1010.9 |
| 20260901090542 | 81 | 33 | 1.7 | 5.2 | 0.00 | 0.00 | 0.00 | 55 | 1010.9 |
| 20260901090042 | 81 | 64 | 2.6 | 5.2 | 0.00 | 0.00 | 0.00 | 55 | 1011.0 |
| 20260901085547 | 80 | 36 | 0.9 | 3.5 | 0.00 | 0.00 | 0.00 | 55 | 1011.0 |
| 20260901085043 | 80 | 38 | 1.7 | 2.6 | 0.00 | 0.00 | 0.00 | 55 | 1010.9 |
| 20260901084555 | 80 | 43 | 0.9 | 2.6 | 0.00 | 0.00 | 0.00 | 56 | 1011.0 |
| 20260901084042 | 80 | 37 | 0.0 | 1.7 | 0.00 | 0.00 | 0.00 | 57 | 1011.0 |
| 20260901083542 | 80 | 29 | 0.0 | 1.7 | 0.00 | 0.00 | 0.00 | 57 | 1011.0 |
| 20260901083042 | 80 | 12 | 0.0 | 0.9 | 0.00 | 0.00 | 0.00 | 56 | 1011.0 |
| 20260901082541 | 80 | 41 | 0.0 | 2.6 | 0.00 | 0.00 | 0.00 | 56 | 1011.0 |
| 20260901082040 | 80 | 40 | 0.9 | 2.6 | 0.00 | 0.00 | 0.00 | 57 | 1011.0 |
| 20260901081540 | 80 | 47 | 0.0 | 1.7 | 0.00 | 0.00 | 0.00 | 56 | 1011.1 |
| 20260901081040 | 80 | 50 | 0.0 | 0.9 | 0.00 | 0.00 | 0.00 | 57 | 1011.1 |
| 20260901080540 | 80 | 50 | 0.0 | 0.0 | 0.00 | 0.00 | 0.00 | 56 | 1011.1 |
| 20260901080047 | 80 | 50 | 0.0 | 0.0 | 0.00 | 0.00 | 0.00 | 57 | 1011.1 |
| 20260901075541 | 80 | 50 | 0.0 | 0.9 | 0.00 | 0.00 | 0.00 | 56 | 1011.0 |
| 20260901075043 | 80 | 50 | 0.0 | 0.0 | 0.00 | 0.00 | 0.00 | 57 | 1011.1 |
| 20260901074553 | 81 | 50 | 0.0 | 1.7 | 0.00 | 0.00 | 0.00 | 57 | 1011.1 |
| 20260901074040 | 81 | 50 | 0.0 | 1.7 | 0.00 | 0.00 | 0.00 | 56 | 1011.1 |
| 20260901073538 | 81 | 50 | 0.9 | 1.7 | 0.00 | 0.00 | 0.00 | 55 | 1011.0 |
| 20260901073037 | 81 | 36 | 0.0 | 1.7 | 0.00 | 0.00 | 0.00 | 55 | 1011.1 |
| 20260901072537 | 81 | 42 | 0.0 | 1.7 | 0.00 | 0.00 | 0.00 | 56 | 1011.1 |
| 20260901072036 | 81 | 5 | 0.0 | 1.7 | 0.00 | 0.00 | 0.00 | 55 | 1011.0 |
| 20260901071537 | 81 | 19 | 0.0 | 1.7 | 0.00 | 0.00 | 0.00 | 55 | 1011.0 |
| 20260901071034 | 81 | 40 | 0.0 | 1.7 | 0.00 | 0.00 | 0.00 | 55 | 1010.9 |
| 20260901070533 | 81 | 40 | 0.0 | 2.6 | 0.00 | 0.00 | 0.00 | 54 | 1010.9 |
| 20260901070036 | 81 | 34 | 0.0 | 2.6 | 0.00 | 0.00 | 0.00 | 54 | 1010.8 |
| 20260901065534 | 81 | 26 | 0.0 | 0.0 | 0.00 | 0.00 | 0.00 | 54 | 1010.9 |
| 20260901065033 | 81 | 34 | 0.0 | 1.7 | 0.00 | 0.00 | 0.00 | 53 | 1010.8 |
| 20260901064533 | 81 | 31 | 0.0 | 1.7 | 0.00 | 0.00 | 0.00 | 53 | 1010.9 |
| 20260901064032 | 81 | 44 | 0.9 | 1.7 | 0.00 | 0.00 | 0.00 | 54 | 1010.8 |
| 20260901063533 | 81 | 35 | 0.9 | 1.7 | 0.00 | 0.00 | 0.00 | 53 | 1010.8 |
| 20260901063032 | 81 | 38 | 0.0 | 2.6 | 0.00 | 0.00 | 0.00 | 54 | 1010.8 |
| 20260901062532 | 81 | 21 | 0.0 | 2.6 | 0.00 | 0.00 | 0.00 | 53 | 1010.8 |
| 20260901062031 | 81 | 18 | 0.9 | 3.5 | 0.00 | 0.00 | 0.00 | 53 | 1010.7 |
| 20260901061531 | 81 | 34 | 0.9 | 3.5 | 0.00 | 0.00 | 0.00 | 53 | 1010.7 |
| 20260901061032 | 81 | 46 | 0.0 | 1.7 | 0.00 | 0.00 | 0.00 | 53 | 1010.8 |
| 20260901060533 | 81 | 34 | 0.0 | 1.7 | 0.00 | 0.00 | 0.00 | 54 | 1010.8 |
| 20260901060031 | 81 | 26 | 0.0 | 1.7 | 0.00 | 0.00 | 0.00 | 54 | 1010.7 |
| 20260901055530 | 82 | 360 | 0.0 | 1.7 | 0.00 | 0.00 | 0.00 | 55 | 1010.8 |
| 20260901055031 | 82 | 37 | 0.0 | 3.5 | 0.00 | 0.00 | 0.00 | 53 | 1010.7 |
| 20260901054531 | 82 | 50 | 0.0 | 1.7 | 0.00 | 0.00 | 0.00 | 53 | 1010.7 |
| 20260901054031 | 82 | 40 | 0.0 | 1.7 | 0.00 | 0.00 | 0.00 | 55 | 1010.7 |
| 20260901053531 | 82 | 16 | 0.0 | 1.7 | 0.00 | 0.00 | 0.00 | 54 | 1010.7 |
| 20260901053035 | 82 | 63 | 0.0 | 2.6 | 0.00 | 0.00 | 0.00 | 53 | 1010.6 |
| 20260901052529 | 82 | 116 | 0.0 | 2.6 | 0.00 | 0.00 | 0.00 | 52 | 1010.5 |
| 20260901052030 | 82 | 115 | 0.0 | 2.6 | 0.00 | 0.00 | 0.00 | 52 | 1010.5 |
| 20260901051530 | 82 | 34 | 0.0 | 1.7 | 0.00 | 0.00 | 0.00 | 53 | 1010.5 |
| 20260901051033 | 83 | 45 | 0.0 | 0.9 | 0.00 | 0.00 | 0.00 | 52 | 1010.4 |
| 20260901050529 | 83 | 45 | 0.0 | 1.7 | 0.00 | 0.00 | 0.00 | 51 | 1010.4 |
| 20260901050029 | 83 | 45 | 0.0 | 1.7 | 0.00 | 0.00 | 0.00 | 49 | 1010.4 |
| 20260901045530 | 83 | 113 | 0.0 | 1.7 | 0.00 | 0.00 | 0.00 | 49 | 1010.4 |
| 20260901045028 | 83 | 85 | 0.0 | 1.7 | 0.00 | 0.00 | 0.00 | 49 | 1010.4 |
| 20260901044535 | 83 | 82 | 0.0 | 1.7 | 0.00 | 0.00 | 0.00 | 49 | 1010.3 |
| 20260901044028 | 83 | 94 | 0.0 | 2.6 | 0.00 | 0.00 | 0.00 | 49 | 1010.3 |
| 20260901043528 | 83 | 88 | 0.0 | 1.7 | 0.00 | 0.00 | 0.00 | 50 | 1010.3 |
| 20260901043028 | 83 | 100 | 0.0 | 1.7 | 0.00 | 0.00 | 0.00 | 49 | 1010.3 |
| 20260901042530 | 83 | 78 | 0.0 | 1.7 | 0.00 | 0.00 | 0.00 | 50 | 1010.3 |
| 20260901042028 | 83 | 57 | 0.0 | 1.7 | 0.00 | 0.00 | 0.00 | 52 | 1010.4 |
| 20260901041533 | 83 | 49 | 0.0 | 1.7 | 0.00 | 0.00 | 0.00 | 52 | 1010.3 |
| 20260901041027 | 84 | 65 | 0.0 | 1.7 | 0.00 | 0.00 | 0.00 | 51 | 1010.1 |
| 20260901040527 | 84 | 85 | 0.0 | 3.5 | 0.00 | 0.00 | 0.00 | 49 | 1010.1 |
| 20260901040027 | 84 | 104 | 0.9 | 2.6 | 0.00 | 0.00 | 0.00 | 49 | 1010.0 |
| 20260901035527 | 84 | 109 | 0.0 | 2.6 | 0.00 | 0.00 | 0.00 | 49 | 1010.1 |
| 20260901035029 | 84 | 58 | 0.0 | 2.6 | 0.00 | 0.00 | 0.00 | 50 | 1010.0 |
| 20260901034535 | 84 | 51 | 0.0 | 2.6 | 0.00 | 0.00 | 0.00 | 49 | 1009.8 |
| 20260901034027 | 84 | 117 | 0.0 | 2.6 | 0.00 | 0.00 | 0.00 | 49 | 1009.8 |
| 20260901033526 | 84 | 136 | 0.0 | 2.6 | 0.00 | 0.00 | 0.00 | 49 | 1009.8 |
| 20260901033029 | 84 | 138 | 0.0 | 1.7 | 0.00 | 0.00 | 0.00 | 49 | 1009.7 |
| 20260901032526 | 84 | 155 | 0.0 | 1.7 | 0.00 | 0.00 | 0.00 | 49 | 1009.6 |
| 20260901032026 | 84 | 140 | 0.0 | 1.7 | 0.00 | 0.00 | 0.00 | 49 | 1009.6 |
| 20260901031534 | 85 | 143 | 0.0 | 2.6 | 0.00 | 0.00 | 0.00 | 50 | 1009.6 |
| 20260901031025 | 85 | 134 | 0.9 | 2.6 | 0.00 | 0.00 | 0.00 | 50 | 1009.4 |
| 20260901030525 | 85 | 140 | 0.0 | 2.6 | 0.00 | 0.00 | 0.00 | 51 | 1009.4 |
| 20260901030025 | 85 | 153 | 0.0 | 2.6 | 0.00 | 0.00 | 0.00 | 51 | 1009.4 |
| 20260901025529 | 85 | 171 | 0.9 | 2.6 | 0.00 | 0.00 | 0.00 | 51 | 1009.3 |
| 20260901025027 | 85 | 150 | 0.0 | 2.6 | 0.00 | 0.00 | 0.00 | 51 | 1009.2 |
| 20260901024525 | 85 | 86 | 0.9 | 2.6 | 0.00 | 0.00 | 0.00 | 50 | 1009.1 |
| 20260901024026 | 85 | 141 | 0.0 | 2.6 | 0.00 | 0.00 | 0.00 | 50 | 1009.0 |
| 20260901023526 | 85 | 103 | 0.0 | 1.7 | 0.00 | 0.00 | 0.00 | 50 | 1009.1 |
| 20260901023024 | 85 | 201 | 0.0 | 1.7 | 0.00 | 0.00 | 0.00 | 50 | 1008.9 |
| 20260901022524 | 85 | 106 | 0.0 | 1.7 | 0.00 | 0.00 | 0.00 | 50 | 1008.8 |
| 20260901022027 | 85 | 130 | 0.0 | 1.7 | 0.00 | 0.00 | 0.00 | 50 | 1008.7 |
| 20260901021525 | 85 | 111 | 0.0 | 3.5 | 0.00 | 0.00 | 0.00 | 50 | 1008.8 |
| 20260901021024 | 85 | 119 | 0.9 | 3.5 | 0.00 | 0.00 | 0.00 | 49 | 1008.8 |
| 20260901020524 | 86 | 101 | 0.0 | 5.2 | 0.00 | 0.00 | 0.00 | 49 | 1008.9 |
| 20260901020024 | 86 | 130 | 0.9 | 5.2 | 0.00 | 0.00 | 0.00 | 49 | 1008.9 |
| 20260901015525 | 86 | 161 | 0.9 | 3.5 | 0.00 | 0.00 | 0.00 | 48 | 1009.1 |
| 20260901015022 | 86 | 146 | 0.9 | 4.3 | 0.00 | 0.00 | 0.00 | 48 | 1009.1 |
| 20260901014523 | 86 | 134 | 0.9 | 4.3 | 0.00 | 0.00 | 0.00 | 48 | 1009.1 |
| 20260901014023 | 86 | 186 | 0.9 | 5.2 | 0.00 | 0.00 | 0.00 | 47 | 1009.2 |
| 20260901013524 | 86 | 143 | 0.9 | 5.2 | 0.00 | 0.00 | 0.00 | 47 | 1009.1 |
| 20260901013029 | 86 | 161 | 0.9 | 4.3 | 0.00 | 0.00 | 0.00 | 46 | 1009.1 |
| 20260901012522 | 87 | 123 | 1.7 | 4.3 | 0.00 | 0.00 | 0.00 | 46 | 1009.0 |
| 20260901012021 | 87 | 128 | 0.0 | 3.5 | 0.00 | 0.00 | 0.00 | 46 | 1009.0 |
| 20260901011521 | 87 | 119 | 0.0 | 3.5 | 0.00 | 0.00 | 0.00 | 45 | 1008.9 |
| 20260901011021 | 87 | 124 | 0.9 | 5.2 | 0.00 | 0.00 | 0.00 | 45 | 1009.0 |
| 20260901010524 | 87 | 112 | 0.0 | 7.0 | 0.00 | 0.00 | 0.00 | 45 | 1009.0 |
| 20260901010027 | 87 | 88 | 0.9 | 7.0 | 0.00 | 0.00 | 0.00 | 45 | 1009.0 |
| 20260901005525 | 87 | 124 | 0.0 | 3.5 | 0.00 | 0.00 | 0.00 | 45 | 1009.0 |
| 20260901005021 | 88 | 139 | 0.0 | 4.3 | 0.00 | 0.00 | 0.00 | 45 | 1009.0 |
| 20260901004521 | 88 | 90 | 0.9 | 7.0 | 0.00 | 0.00 | 0.00 | 45 | 1009.0 |
| 20260901004020 | 88 | 70 | 0.9 | 7.0 | 0.00 | 0.00 | 0.00 | 44 | 1008.8 |
| 20260901003520 | 88 | 161 | 0.9 | 6.1 | 0.00 | 0.00 | 0.00 | 44 | 1008.8 |
| 20260901003030 | 88 | 69 | 1.7 | 5.2 | 0.00 | 0.00 | 0.00 | 44 | 1008.9 |
| 20260901002520 | 88 | 154 | 0.9 | 3.5 | 0.00 | 0.00 | 0.00 | 45 | 1008.9 |
| 20260901002020 | 88 | 88 | 1.7 | 7.0 | 0.00 | 0.00 | 0.00 | 45 | 1008.8 |
| 20260901001521 | 88 | 71 | 2.6 | 7.0 | 0.00 | 0.00 | 0.00 | 44 | 1008.8 |
| 20260901001019 | 89 | 111 | 1.7 | 5.2 | 0.00 | 0.00 | 0.00 | 44 | 1008.8 |
| 20260901000519 | 89 | 140 | 1.7 | 5.2 | 0.00 | 0.00 | 0.00 | 44 | 1008.9 |
| 20260901000019 | 89 | 146 | 0.9 | 5.2 | 0.00 | 0.00 | 0.00 | 44 | 1008.9 |
| 20260831235523 | 89 | 69 | 0.9 | 7.0 | 0.00 | 0.00 | 0.00 | 44 | 1009.0 |
| 20260831235019 | 89 | 78 | 2.6 | 7.0 | 0.00 | 0.00 | 0.00 | 43 | 1009.0 |
| 20260831234520 | 89 | 54 | 2.6 | 9.6 | 0.00 | 0.00 | 0.00 | 43 | 1009.0 |
| 20260831234020 | 90 | 163 | 0.9 | 9.6 | 0.00 | 0.00 | 0.00 | 43 | 1009.2 |
| 20260831233519 | 90 | 143 | 1.7 | 6.1 | 0.00 | 0.00 | 0.00 | 42 | 1009.3 |
| 20260831233018 | 90 | 167 | 0.0 | 6.1 | 0.00 | 0.00 | 0.00 | 43 | 1009.2 |
| 20260831232524 | 90 | 67 | 2.6 | 9.6 | 0.00 | 0.00 | 0.00 | 42 | 1009.2 |
| 20260831232018 | 90 | 78 | 3.5 | 9.6 | 0.00 | 0.00 | 0.00 | 41 | 1009.3 |
| 20260831231517 | 90 | 29 | 1.7 | 7.8 | 0.00 | 0.00 | 0.00 | 41 | 1009.4 |
| 20260831231018 | 89 | 36 | 0.9 | 9.6 | 0.00 | 0.00 | 0.00 | 43 | 1009.6 |
| 20260831230517 | 89 | 85 | 3.5 | 8.7 | 0.00 | 0.00 | 0.00 | 42 | 1009.6 |
| 20260831230017 | 89 | 50 | 4.3 | 8.7 | 0.00 | 0.00 | 0.00 | 42 | 1009.5 |
| 20260831225515 | 90 | 167 | 3.5 | 7.8 | 0.00 | 0.00 | 0.00 | 42 | 1009.5 |
| 20260831225014 | 89 | 110 | 0.9 | 8.7 | 0.00 | 0.00 | 0.00 | 45 | 1009.5 |
| 20260831224514 | 89 | 45 | 3.5 | 8.7 | 0.00 | 0.00 | 0.00 | 46 | 1009.7 |
| 20260831224013 | 89 | 115 | 2.6 | 10.4 | 0.00 | 0.00 | 0.00 | 45 | 1009.6 |
| 20260831223513 | 89 | 58 | 4.3 | 10.4 | 0.00 | 0.00 | 0.00 | 45 | 1009.8 |
| 20260831223013 | 88 | 115 | 2.6 | 7.8 | 0.00 | 0.00 | 0.00 | 45 | 1009.8 |
| 20260831222513 | 88 | 86 | 1.7 | 8.7 | 0.00 | 0.00 | 0.00 | 46 | 1009.7 |
| 20260831222011 | 88 | 49 | 3.5 | 8.7 | 0.00 | 0.00 | 0.00 | 46 | 1009.9 |
| 20260831221523 | 88 | 200 | 2.6 | 11.3 | 0.00 | 0.00 | 0.00 | 46 | 1010.0 |
| 20260831221015 | 88 | 73 | 5.2 | 11.3 | 0.00 | 0.00 | 0.00 | 45 | 1010.1 |
| 20260831220512 | 88 | 61 | 4.3 | 9.6 | 0.00 | 0.00 | 0.00 | 47 | 1010.3 |
| 20260831220011 | 88 | 90 | 4.3 | 11.3 | 0.00 | 0.00 | 0.00 | 46 | 1010.4 |
| 20260831215511 | 88 | 109 | 5.2 | 11.3 | 0.00 | 0.00 | 0.00 | 47 | 1010.4 |
| 20260831215011 | 88 | 208 | 3.5 | 7.8 | 0.00 | 0.00 | 0.00 | 50 | 1010.5 |
| 20260831214510 | 88 | 123 | 3.5 | 12.2 | 0.00 | 0.00 | 0.00 | 50 | 1010.6 |
| 20260831214011 | 88 | 116 | 4.3 | 12.2 | 0.00 | 0.00 | 0.00 | 50 | 1010.8 |
| 20260831213511 | 88 | 55 | 5.2 | 9.6 | 0.00 | 0.00 | 0.00 | 51 | 1010.9 |
| 20260831213012 | 88 | 127 | 2.6 | 7.8 | 0.00 | 0.00 | 0.00 | 50 | 1011.0 |
| 20260831212511 | 88 | 119 | 1.7 | 7.8 | 0.00 | 0.00 | 0.00 | 50 | 1011.1 |
| 20260831212010 | 87 | 92 | 3.5 | 11.3 | 0.00 | 0.00 | 0.00 | 50 | 1011.2 |
| 20260831211511 | 87 | 55 | 4.3 | 11.3 | 0.00 | 0.00 | 0.00 | 50 | 1011.3 |
| 20260831211009 | 88 | 60 | 1.7 | 8.7 | 0.00 | 0.00 | 0.00 | 50 | 1011.3 |
| 20260831210509 | 88 | 140 | 3.5 | 8.7 | 0.00 | 0.00 | 0.00 | 48 | 1011.4 |
| 20260831210009 | 88 | 188 | 1.7 | 8.7 | 0.00 | 0.00 | 0.00 | 48 | 1011.5 |
| 20260831205509 | 88 | 128 | 4.3 | 7.8 | 0.00 | 0.00 | 0.00 | 49 | 1011.6 |
| 20260831205009 | 88 | 134 | 2.6 | 7.8 | 0.00 | 0.00 | 0.00 | 49 | 1011.7 |
| 20260831204510 | 88 | 48 | 0.9 | 11.3 | 0.00 | 0.00 | 0.00 | 49 | 1011.8 |
| 20260831204009 | 88 | 136 | 4.3 | 11.3 | 0.00 | 0.00 | 0.00 | 49 | 1011.8 |
| 20260831203509 | 88 | 180 | 2.6 | 9.6 | 0.00 | 0.00 | 0.00 | 48 | 1011.8 |
| 20260831203009 | 89 | 111 | 1.7 | 7.8 | 0.00 | 0.00 | 0.00 | 49 | 1011.8 |
| 20260831202508 | 88 | 125 | 2.6 | 7.8 | 0.00 | 0.00 | 0.00 | 49 | 1011.8 |
| 20260831202006 | 87 | 172 | 0.9 | 7.8 | 0.00 | 0.00 | 0.00 | 50 | 1011.8 |
| 20260831201506 | 87 | 53 | 1.7 | 7.8 | 0.00 | 0.00 | 0.00 | 51 | 1011.8 |
| 20260831201006 | 87 | 125 | 2.6 | 7.8 | 0.00 | 0.00 | 0.00 | 50 | 1012.0 |
| 20260831200506 | 87 | 151 | 4.3 | 7.8 | 0.00 | 0.00 | 0.00 | 49 | 1012.0 |
| 20260831200005 | 87 | 69 | 4.3 | 9.6 | 0.00 | 0.00 | 0.00 | 49 | 1012.0 |
| 20260831195506 | 87 | 107 | 2.6 | 9.6 | 0.00 | 0.00 | 0.00 | 49 | 1012.1 |
| 20260831195006 | 87 | 100 | 1.7 | 8.7 | 0.00 | 0.00 | 0.00 | 48 | 1012.1 |
| 20260831194504 | 86 | 92 | 3.5 | 7.0 | 0.00 | 0.00 | 0.00 | 48 | 1012.1 |
| 20260831194006 | 86 | 96 | 2.6 | 10.4 | 0.00 | 0.00 | 0.00 | 48 | 1012.2 |
| 20260831193504 | 86 | 142 | 3.5 | 11.3 | 0.00 | 0.00 | 0.00 | 48 | 1012.2 |
| 20260831193004 | 86 | 113 | 1.7 | 6.1 | 0.00 | 0.00 | 0.00 | 49 | 1012.2 |
| 20260831192504 | 85 | 126 | 0.9 | 10.4 | 0.00 | 0.00 | 0.00 | 51 | 1012.3 |
| 20260831192004 | 85 | 114 | 2.6 | 8.7 | 0.00 | 0.00 | 0.00 | 53 | 1012.3 |
| 20260831191502 | 85 | 157 | 3.5 | 8.7 | 0.00 | 0.00 | 0.00 | 54 | 1012.4 |
| 20260831191002 | 84 | 90 | 2.6 | 8.7 | 0.00 | 0.00 | 0.00 | 55 | 1012.5 |
| 20260831190502 | 84 | 103 | 2.6 | 8.7 | 0.00 | 0.00 | 0.00 | 56 | 1012.6 |
| 20260831190004 | 84 | 103 | 2.6 | 8.7 | 0.00 | 0.00 | 0.00 | 55 | 1012.5 |
| 20260831185504 | 84 | 182 | 1.7 | 7.8 | 0.00 | 0.00 | 0.00 | 55 | 1012.5 |
| 20260831185002 | 83 | 212 | 1.7 | 6.1 | 0.00 | 0.00 | 0.00 | 55 | 1012.7 |
| 20260831184611 | 83 | 134 | 2.6 | 7.0 | 0.00 | 0.00 | 0.00 | 56 | 1012.7 |
| 20260831184100 | 83 | 126 | 0.9 | 8.7 | 0.00 | 0.00 | 0.00 | 58 | 1012.6 |
| 20260831183600 | 83 | 122 | 3.5 | 9.6 | 0.00 | 0.00 | 0.00 | 56 | 1012.7 |
| 20260831183101 | 83 | 119 | 1.7 | 7.0 | 0.00 | 0.00 | 0.00 | 54 | 1012.6 |
| 20260831182601 | 83 | 138 | 0.9 | 7.0 | 0.00 | 0.00 | 0.00 | 56 | 1012.7 |
| 20260831182100 | 83 | 87 | 0.9 | 7.0 | 0.00 | 0.00 | 0.00 | 56 | 1012.7 |
| 20260831181602 | 83 | 107 | 2.6 | 9.6 | 0.00 | 0.00 | 0.00 | 55 | 1012.7 |
| 20260831181059 | 83 | 82 | 2.6 | 5.2 | 0.00 | 0.00 | 0.00 | 57 | 1012.7 |
| 20260831180659 | 83 | 155 | 1.7 | 6.1 | 0.00 | 0.00 | 0.00 | 57 | 1012.8 |
| 20260831180059 | 83 | 143 | 2.6 | 7.0 | 0.00 | 0.00 | 0.00 | 56 | 1012.9 |
| 20260831175600 | 82 | 66 | 1.7 | 9.6 | 0.00 | 0.00 | 0.00 | 57 | 1013.0 |
| 20260831175058 | 82 | 75 | 4.3 | 9.6 | 0.00 | 0.00 | 0.00 | 58 | 1013.0 |
| 20260831174626 | 82 | 110 | 1.7 | 7.0 | 0.00 | 0.00 | 0.00 | 59 | 1013.0 |
| 20260831174057 | 81 | 61 | 0.9 | 8.7 | 0.00 | 0.00 | 0.00 | 60 | 1013.0 |
| 20260831173556 | 81 | 67 | 4.3 | 8.7 | 0.00 | 0.00 | 0.00 | 61 | 1013.1 |
| 20260831173055 | 81 | 70 | 3.5 | 7.8 | 0.00 | 0.00 | 0.00 | 61 | 1013.1 |
| 20260831172554 | 80 | 76 | 3.5 | 8.7 | 0.00 | 0.00 | 0.00 | 61 | 1013.1 |
| 20260831172053 | 80 | 97 | 5.2 | 7.8 | 0.00 | 0.00 | 0.00 | 61 | 1013.1 |
| 20260831171552 | 80 | 67 | 2.6 | 9.6 | 0.00 | 0.00 | 0.00 | 60 | 1013.1 |
| 20260831171052 | 80 | 87 | 4.3 | 11.3 | 0.00 | 0.00 | 0.00 | 60 | 1013.1 |
| 20260831170552 | 80 | 55 | 3.5 | 11.3 | 0.00 | 0.00 | 0.00 | 61 | 1013.1 |
| 20260831170056 | 80 | 65 | 3.5 | 8.7 | 0.00 | 0.00 | 0.00 | 60 | 1013.0 |
| 20260831165555 | 79 | 82 | 3.5 | 8.7 | 0.00 | 0.00 | 0.00 | 60 | 1013.0 |
| 20260831165054 | 79 | 76 | 2.6 | 9.6 | 0.00 | 0.00 | 0.00 | 61 | 1013.0 |
| 20260831164555 | 79 | 36 | 6.1 | 9.6 | 0.00 | 0.00 | 0.00 | 65 | 1013.0 |
| 20260831164050 | 79 | 82 | 5.2 | 9.6 | 0.00 | 0.00 | 0.00 | 65 | 1012.9 |
| 20260831163549 | 79 | 45 | 5.2 | 9.6 | 0.00 | 0.00 | 0.00 | 67 | 1013.0 |
| 20260831163048 | 79 | 62 | 3.5 | 8.7 | 0.00 | 0.00 | 0.00 | 67 | 1012.8 |
| 20260831162547 | 79 | 98 | 2.6 | 11.3 | 0.00 | 0.00 | 0.00 | 68 | 1012.7 |
| 20260831162045 | 79 | 88 | 6.1 | 11.3 | 0.00 | 0.00 | 0.00 | 68 | 1012.7 |
| 20260831161544 | 79 | 90 | 5.2 | 10.4 | 0.00 | 0.00 | 0.00 | 68 | 1012.8 |